1311206427454,18.1710
1311206487454,18.1908
1311206547454,18.1220
1311206607454,18.1891
1311206667454,18.1886
1311206727454,18.1794
1311206787454,18.1977
1311206847454,18.1650
1311206907454,18.1425
1311206967454,18.1686
1311207027454,18.1902
1311207087454,18.1626
1311207147454,18.1814
1311207207454,18.1676
1311207267454,18.1399
1311207327454,18.1336
1311207387454,18.1470
1311207447454,18.1473
1311207507454,18.1262
1311207567454,18.0971
1311207627454,18.1202
1311207687454,18.1560
1311207747454,18.1610
1311207807454,18.1491
1311207867454,18.1261
1311207927454,18.1451
1311207987454,18.1339
1311208047454,18.1571
1311208107454,18.1850
1311208167454,18.1529
1311208227454,18.1815
1311208287454,18.1179
1311208347454,18.2001
1311208407454,18.1593
1311208467454,18.1154
1311208527454,18.1318
1311208587454,18.1827
1311208647454,18.1649
1311208707454,18.1409
1311208767454,18.2251
1311208827454,18.1428
1311208887454,18.1851
1311208947454,18.2267
1311209007454,18.2779
1311209067454,18.2865
1311209127454,18.2873
1311209187454,18.2218
1311209247454,18.1714
1311209307454,18.1366
1311209367454,18.1555
1311209427454,18.1642
1311209487454,18.1228
1311209547454,18.1310
1311209607454,18.1222
1311209667454,18.1146
1311209727454,18.1917
1311209787454,18.1441
1311209847454,18.1388
1311209907454,18.1329
1311209967454,18.1523
1311210027464,18.1521
1311210087464,18.1276
1311210147464,18.1654
1311210207464,18.1439
1311210267464,18.2199
1311210327464,18.2269
1311210387464,18.2223
1311210447464,18.2264
1311210507464,18.2012
1311210567464,18.1940
1311210627464,18.1809
1311210687464,18.2262
1311210747464,18.1644
1311210807464,18.1639
1311210867464,18.2022
1311210927464,18.1411
1311210987464,18.1833
1311211047464,18.2007
1311211107464,18.1746
1311211167464,18.1925
1311211227464,18.1430
1311211287464,18.1449
1311211347464,18.1543
1311211407464,18.1270
1311211467464,18.1499
1311211527464,18.2082
1311211587464,18.1277
1311211647464,18.1556
1311211707464,18.1467
1311211767464,18.1657
1311211827464,18.1384
1311211887464,18.1723
1311211947464,18.1159
1311212007464,18.1213
1311212067464,18.1600
1311212127464,18.1972
1311212187464,18.1697
1311212247464,18.1463
1311212307464,18.1090
1311212367464,18.1791
1311212427464,18.1350
1311212487464,18.0857
1311212547464,18.0812
1311212607464,18.0560
1311212667464,18.1115
1311212727464,18.1331
1311212787464,18.1248
1311212847464,18.0979
1311212907464,18.0671
1311212967464,18.1449
1311213027464,18.0902
1311213087464,18.1371
1311213147464,18.1500
1311213207464,18.1323
1311213267464,18.1903
1311213327464,18.1677
1311213387464,18.1075
1311213447464,18.1416
1311213507464,18.1837
1311213567464,18.1339
1311213627474,18.1727
1311213687474,18.1442
1311213747474,18.1555
1311213807474,18.1133
1311213867474,18.1579
1311213927474,18.1573
1311213987474,18.0903
1311214047474,18.0693
1311214107474,18.1590
1311214167474,18.1324
1311214227474,18.0837
1311214287474,18.1119
1311214347474,18.1364
1311214407474,18.1114
1311214467474,18.0949
1311214527474,18.1191
1311214587473,18.0889
1311214647473,18.1299
1311214707473,18.1307
1311214767473,18.1028
1311214827473,18.1690
1311214887474,18.1500
1311214947474,18.1111
1311215007474,18.1537
1311215067474,18.1341
1311215127474,18.1425
1311215187474,18.1382
1311215247474,18.1280
1311215307474,18.1708
1311215367474,18.1758
1311215427474,18.1453
1311215487474,18.1692
1311215547474,18.1944
1311215607474,18.1897
1311215667474,18.1339
1311215727474,18.1439
1311215787474,18.1940
1311215847474,18.1952
1311215907473,18.1995
1311215967473,18.2027
1311216027473,18.1755
1311216087473,18.1891
1311216147473,18.2243
1311216207473,18.1624
1311216267474,18.2127
1311216327474,18.1832
1311216387474,18.2161
1311216447474,18.2315
1311216507474,18.1975
1311216567474,18.2286
1311216627474,18.2544
1311216687474,18.2557
1311216747474,18.2516
1311216807474,18.2311
1311216867474,18.2189
1311216927474,18.2179
1311216987474,18.1949
1311217047474,18.1976
1311217107474,18.1824
1311217167474,18.1892
1311217227483,18.1349
1311217287483,18.1871
1311217347483,18.1768
1311217407483,18.1554
1311217467483,18.2113
1311217527483,18.2228
1311217587483,18.1580
1311217647483,18.1883
1311217707483,18.1578
1311217767483,18.1488
1311217827483,18.1620
1311217887483,18.1483
1311217947483,18.1451
1311218007483,18.1303
1311218067483,18.1821
1311218127483,18.1031
1311218187483,18.1267
1311218247483,18.1333
1311218307483,18.0904
1311218367483,18.1352
1311218427483,18.1290
1311218487483,18.1602
1311218547483,18.1784
1311218607483,18.1486
1311218667483,18.1481
1311218727483,18.1142
1311218787483,18.1321
1311218847483,18.1342
1311218907483,18.0825
1311218967483,18.1566
1311219027483,18.1094
1311219087483,18.1079
1311219147483,18.1261
1311219207483,18.1446
1311219267483,18.1447
1311219327483,18.2633
1311219387483,18.1919
1311219447483,18.1049
1311219507483,18.1339
1311219567483,18.1885
1311219627483,18.2208
1311219687483,18.1600
1311219747483,18.1454
1311219807483,18.1584
1311219867483,18.1836
1311219927483,18.1419
1311219987483,18.1353
1311220047483,18.1959
1311220107483,18.2165
1311220167483,18.1397
1311220227483,18.1811
1311220287483,18.1675
1311220347483,18.1589
1311220407483,18.1271
1311220467483,18.1789
1311220527483,18.1174
1311220587483,18.1708
1311220647483,18.1896
1311220707483,18.1218
1311220767483,18.2021
1311220827492,18.1859
1311220887492,18.1995
1311220947492,18.2060
1311221007492,18.1287
1311221067492,18.1416
1311221127492,18.1635
1311221187492,18.1544
1311221247492,18.1490
1311221307492,18.1619
1311221367492,18.1067
1311221427492,18.1598
1311221487492,18.0891
1311221547492,18.1225
1311221607492,18.1138
1311221667492,18.1059
1311221727492,18.1248
1311221787492,18.0841
1311221847492,18.1511
1311221907492,18.0866
1311221967492,18.1012
1311222027492,18.1144
1311222087492,18.1211
1311222147492,18.1317
1311222207492,18.1047
1311222267492,18.0870
1311222327492,18.1087
1311222387492,18.1150
1311222447492,18.0967
1311222507492,18.1757
1311222567492,18.1317
1311222627492,18.0809
1311222687492,18.0498
1311222747492,18.1145
1311222807492,18.1246
1311222867492,18.1536
1311222927492,18.1464
1311222987492,18.1290
1311223047492,18.1302
1311223107492,18.1179
1311223167492,18.0957
1311223227492,18.2757
1311223287492,18.0971
1311223347492,18.1324
1311223407492,18.0966
1311223467492,18.1078
1311223527492,18.1376
1311223587492,18.1598
1311223647492,18.0786
1311223707492,18.1316
1311223767492,18.0887
1311223827492,18.1047
1311223887492,18.0922
1311223947492,18.1314
1311224007492,18.2215
1311224067492,18.1041
1311224127492,18.1306
1311224187492,18.1594
1311224247492,18.1612
1311224307492,18.1181
1311224367492,18.1484
1311224427501,18.1241
1311224487501,18.1254
1311224547501,18.0913
1311224607501,18.0894
1311224667501,18.0989
1311224727501,18.0872
1311224787501,18.0929
1311224847501,18.1061
1311224907501,18.0919
1311224967501,18.1166
1311225027501,18.1411
1311225087501,18.1245
1311225147501,18.1108
1311225207501,18.0998
1311225267501,18.1363
1311225327501,18.0744
1311225387501,18.1000
1311225447501,18.1208
1311225507501,18.1303
1311225567501,18.1216
1311225627501,18.0848
1311225687501,18.0896
1311225747501,18.0849
1311225807501,18.0691
1311225867501,18.0918
1311225927501,18.1083
1311225987501,18.1342
1311226047501,18.1091
1311226107501,18.0979
1311226167501,18.1504
1311226227501,18.1144
1311226287501,18.1265
1311226347501,18.0944
1311226407501,18.0987
1311226467501,18.0768
1311226527501,18.1159
1311226587501,18.1107
1311226647501,18.0715
1311226707501,18.1227
1311226767501,18.1128
1311226827501,18.1071
1311226887501,18.1029
1311226947501,18.1640
1311227007501,18.0899
1311227067501,18.1469
1311227127501,18.1315
1311227187501,18.1211
1311227247501,18.0699
1311227307501,18.1308
1311227367501,18.1389
1311227427501,18.1303
1311227487501,18.1672
1311227547501,18.1681
1311227607501,18.1879
1311227667501,18.1108
1311227727501,18.1153
1311227787501,18.1405
1311227847501,18.1166
1311227907501,18.1258
1311227967501,18.1009
1311228027510,18.2113
1311228087510,18.0691
1311228147510,18.1507
1311228207510,18.1218
1311228267510,18.1464
1311228327510,18.1249
1311228387510,18.1311
1311228447510,18.1298
1311228507510,18.0914
1311228567510,18.1415
1311228627510,18.1058
1311228687510,18.0761
1311228747510,18.1127
1311228807510,18.1147
1311228867510,18.0889
1311228927510,18.1349
1311228987510,18.0985
1311229047510,18.0803
1311229107510,18.1165
1311229167510,18.0705
1311229227510,18.1088
1311229287510,18.0584
1311229347510,18.1067
1311229407510,18.1077
1311229467510,18.1024
1311229527510,18.0973
1311229587510,18.0915
1311229647510,18.1034
1311229707510,18.0818
1311229767510,18.1144
1311229827510,18.1014
1311229887510,18.1183
1311229947510,18.0470
1311230007510,18.1266
1311230067510,18.1170
1311230127510,18.0464
1311230187510,18.1319
1311230247510,18.1657
1311230307510,18.1158
1311230367510,18.0854
1311230427510,18.1423
1311230487510,18.1109
1311230547510,18.0783
1311230607510,18.1048
1311230667510,18.1304
1311230727510,18.0865
1311230787510,18.1103
1311230847510,18.1764
1311230907510,18.1052
1311230967510,18.1269
1311231027510,18.1238
1311231087510,18.1164
1311231147510,18.0975
1311231207510,18.1450
1311231267510,18.1014
1311231327510,18.1598
1311231387510,18.1171
1311231447510,18.1451
1311231507510,18.1585
1311231567510,18.0873
1311231627519,18.1629
1311231687519,18.1279
1311231747519,18.1197
1311231807519,18.1249
1311231867519,18.1444
1311231927519,18.0831
1311231987519,18.0822
1311232047519,18.0914
1311232107519,18.0789
1311232167519,18.1467
1311232227519,18.1128
1311232287519,18.1286
1311232347519,18.1306
1311232407519,18.1025
1311232467519,18.1448
1311232527519,18.1199
1311232587519,18.1194
1311232647519,18.0791
1311232707519,18.1269
1311232767519,18.1475
1311232827519,18.1730
1311232887519,18.0816
1311232947519,18.1445
1311233007519,18.0914
1311233067519,18.1318
1311233127519,18.1614
1311233187519,18.1385
1311233247519,18.1223
1311233307519,18.1489
1311233367519,18.1381
1311233427519,18.1493
1311233487519,18.1562
1311233547519,18.1783
1311233607519,18.2345
1311233667519,18.1706
1311233727519,18.1555
1311233787519,18.1622
1311233847519,18.1249
1311233907519,18.1897
1311233967519,18.1896
1311234027519,18.1923
1311234087519,18.1684
1311234147519,18.1516
1311234207519,18.1795
1311234267519,18.2008
1311234327519,18.1477
1311234387519,18.1816
1311234447519,18.1799
1311234507519,18.1472
1311234567519,18.1401
1311234627519,18.1380
1311234687519,18.1643
1311234747519,18.1504
1311234807519,18.1556
1311234867519,18.0897
1311234927519,18.1940
1311234987519,18.1310
1311235047519,18.1144
1311235107519,18.1124
1311235167519,18.1735
1311235227528,18.1778
1311235287528,18.1203
1311235347528,18.1639
1311235407528,18.1768
1311235467528,18.1209
1311235527528,18.1423
1311235587528,18.1291
1311235647528,18.1259
1311235707528,18.1465
1311235767528,18.1248
1311235827528,18.1114
1311235887528,18.0993
1311235947528,18.0751
1311236007528,18.0896
1311236067528,18.1121
1311236127528,18.0621
1311236187528,18.0526
1311236247528,18.0899
1311236307528,18.0846
1311236367528,18.1011
1311236427528,18.1122
1311236487528,18.1054
1311236547528,18.1488
1311236607528,18.0303
1311236667528,18.0586
1311236727528,18.0745
1311236787528,18.0434
1311236847528,18.0774
1311236907528,18.0816
1311236967528,18.1103
1311237027528,18.0951
1311237087528,18.1032
1311237147528,18.0482
1311237207528,18.0598
1311237267528,18.0738
1311237327528,18.0425
1311237387528,18.1128
1311237447528,18.0440
1311237507528,18.1045
1311237567528,18.0884
1311237627528,18.0624
1311237687528,18.1322
1311237747528,18.1173
1311237807528,18.1309
1311237867528,18.1125
1311237927528,18.1241
1311237987528,18.1319
1311238047528,18.1822
1311238107528,18.1929
1311238167528,18.1322
1311238227528,18.1146
1311238287528,18.1531
1311238347528,18.1188
1311238407528,18.0942
1311238467528,18.0744
1311238527528,18.1147
1311238587528,18.0812
1311238647528,18.1157
1311238707528,18.1458
1311238767528,18.1130
1311238827537,18.1750
1311238887537,18.1279
1311238947537,18.2058
1311239007537,18.1359
1311239067537,18.1154
1311239127537,18.1182
1311239187537,18.0585
1311239247537,18.1039
1311239307537,18.1361
1311239367537,18.0956
1311239427537,18.1586
1311239487537,18.1314
1311239547537,18.0670
1311239607537,18.1673
1311239667537,18.1424
1311239727537,18.1318
1311239787537,18.0985
1311239847537,18.0686
1311239907537,18.1380
1311239967537,18.0938
1311240027537,18.0234
1311240087537,18.1071
1311240147537,18.0992
1311240207537,18.1674
1311240267537,18.1384
1311240327537,18.1074
1311240387537,18.0448
1311240447537,18.0863
1311240507537,18.1064
1311240567537,18.0815
1311240627537,18.0808
1311240687537,18.0740
1311240747537,18.0918
1311240807537,18.0875
1311240867537,18.0556
1311240927537,18.0989
1311240987537,18.0647
1311241047537,18.0856
1311241107537,18.0879
1311241167537,18.0502
1311241227537,18.0477
1311241287537,18.0451
1311241347537,18.0612
1311241407537,18.1105
1311241467537,18.0698
1311241527537,18.0583
1311241587537,18.0801
1311241647537,18.1133
1311241707537,18.0725
1311241767537,18.0882
1311241827537,18.0532
1311241887537,18.0648
1311241947537,18.0726
1311242007537,18.0894
1311242067537,18.1348
1311242127537,18.0925
1311242187537,18.0860
1311242247537,18.1432
1311242307537,18.1006
1311242367537,18.1170
1311242427546,18.1282
1311242487546,18.0810
1311242547546,18.0398
1311242607546,18.1237
1311242667546,18.1133
1311242727546,18.0539
1311242787546,18.0933
1311242847546,18.0591
1311242907546,18.1108
1311242967546,18.0870
1311243027546,18.1441
1311243087546,18.1291
1311243147546,18.0804
1311243207546,18.0868
1311243267546,18.1126
1311243327546,18.1275
1311243387546,18.0448
1311243447546,18.1078
1311243507546,18.1121
1311243567546,18.0780
1311243627546,18.1214
1311243687546,18.1004
1311243747546,18.1107
1311243807546,18.1136
1311243867546,18.0867
1311243927546,18.0961
1311243987546,18.0896
1311244047546,18.1133
1311244107546,18.0834
1311244167546,18.1270
1311244227546,18.1428
1311244287546,18.1018
1311244347546,18.1684
1311244407546,18.0808
1311244467546,18.0785
1311244527546,18.1299
1311244587546,18.0761
1311244647546,18.0933
1311244707546,18.0505
1311244767546,18.1177
1311244827546,18.0524
1311244887546,18.1509
1311244947546,18.1247
1311245007546,18.1187
1311245067546,18.1107
1311245127546,18.1418
1311245187546,18.1193
1311245247546,18.1192
1311245307546,18.0806
1311245367546,18.1490
1311245427546,18.1356
1311245487546,18.2020
1311245547546,18.0985
1311245607546,18.1311
1311245667546,18.1483
1311245727546,18.1042
1311245787546,18.0737
1311245847546,18.1202
1311245907546,18.0941
1311245967546,18.0575
1311246027555,18.1514
1311246087555,18.0639
1311246147555,18.0682
1311246207555,18.0881
1311246267555,18.0920
1311246327555,18.0590
1311246387555,18.0452
1311246447555,18.1039
1311246507555,18.1430
1311246567555,18.1035
1311246627555,18.0785
1311246687555,18.1501
1311246747555,18.0738
1311246807555,18.1323
1311246867555,18.1048
1311246927555,18.1157
1311246987555,18.1049
1311247047555,18.0827
1311247107555,18.1083
1311247167555,18.1529
1311247227555,18.0757
1311247287555,18.0974
1311247347555,18.1392
1311247407555,18.1575
1311247467555,18.1540
1311247527555,18.1654
1311247587555,18.0782
1311247647555,18.1225
1311247707555,18.0649
1311247767555,18.0853
1311247827555,18.0751
1311247887555,18.0817
1311247947555,18.1499
1311248007555,18.1106
1311248067555,18.0819
1311248127555,18.0602
1311248187555,18.1304
1311248247555,18.0602
1311248307555,18.0866
1311248367555,18.0784
1311248427555,18.0470
1311248487555,18.0972
1311248547555,18.0770
1311248607555,18.1160
1311248667555,18.1151
1311248727555,18.0733
1311248787555,18.1028
1311248847555,18.0750
1311248907555,18.1273
1311248967555,18.1355
1311249027555,18.0736
1311249087555,18.0964
1311249147555,18.0661
1311249207555,18.1005
1311249267555,18.0686
1311249327555,18.1095
1311249387555,18.0866
1311249447555,18.1202
1311249507555,18.0723
1311249567555,18.0941
1311249627564,18.0749
1311249687564,18.1326
1311249747564,18.0916
1311249807564,18.1190
1311249867564,18.1498
1311249927564,18.1161
1311249987564,18.1082
1311250047564,18.1169
1311250107564,18.1544
1311250167564,18.1216
1311250227564,18.1224
1311250287564,18.1249
1311250347564,18.1286
1311250407564,18.1327
1311250467564,18.1632
1311250527564,18.2042
1311250587564,18.1362
1311250647564,18.1630
1311250707564,18.1479
1311250767564,18.1617
1311250827564,18.0945
1311250887564,18.1672
1311250947564,18.1080
1311251007564,18.1166
1311251067564,18.1723
1311251127564,18.1354
1311251187564,18.1304
1311251247564,18.1171
1311251307564,18.0957
1311251367564,18.1667
1311251427564,18.1466
1311251487564,18.1215
1311251547564,18.0772
1311251607564,18.0893
1311251667564,18.0999
1311251727564,18.0595
1311251787564,18.1217
1311251847564,18.0766
1311251907564,18.1264
1311251967564,18.1137
1311252027564,18.0938
1311252087564,18.1096
1311252147564,18.0469
1311252207564,18.1307
1311252267564,18.0657
1311252327564,18.0262
1311252387564,18.0762
1311252447564,18.0447
1311252507564,18.0807
1311252567564,18.1079
1311252627564,18.0648
1311252687564,18.0520
1311252747564,18.0679
1311252807564,18.0855
1311252867564,18.1022
1311252927564,18.1322
1311252987564,18.0926
1311253047564,18.0399
1311253107564,18.0829
1311253167564,18.0701
1311253227573,18.0831
1311253287573,18.0935
1311253347573,18.0710
1311253407573,18.1128
1311253467573,18.0656
1311253527573,18.0655
1311253587573,18.1470
1311253647573,18.1546
1311253707573,18.0780
1311253767573,18.1041
1311253827573,18.0912
1311253887573,18.0874
1311253947573,18.1251
1311254007573,18.1128
1311254067573,18.1455
1311254127573,18.1143
1311254187573,18.1076
1311254247573,18.1209
1311254307573,18.1253
1311254367573,18.1451
1311254427573,18.0979
1311254487573,18.1261
1311254547573,18.1199
1311254607573,18.1529
1311254667573,18.1257
1311254727573,18.0641
1311254787573,18.0716
1311254847573,18.0824
1311254907573,18.1069
1311254967573,18.1094
1311255027573,18.1382
1311255087573,18.0663
1311255147573,18.0801
1311255207573,18.0834
1311255267573,18.1369
1311255327573,18.1054
1311255387573,18.1248
1311255447573,18.1116
1311255507573,18.0795
1311255567573,18.1555
1311255627573,18.1013
1311255687573,18.1302
1311255747573,18.1361
1311255807573,18.0902
1311255867573,18.1443
1311255927573,18.1030
1311255987573,18.1103
1311256047573,18.1099
1311256107573,18.0710
1311256167573,18.0990
1311256227573,18.0926
1311256287573,18.0915
1311256347573,18.1010
1311256407573,18.0766
1311256467573,18.1573
1311256527573,18.1314
1311256587573,18.0986
1311256647573,18.0939
1311256707573,18.0900
1311256767573,18.0538
1311256827582,18.1145
1311256887582,18.0989
1311256947582,18.1061
1311257007582,18.1315
1311257067582,18.0890
1311257127582,18.1095
1311257187582,18.1029
1311257247582,18.1494
1311257307582,18.1354
1311257367582,18.0818
1311257427582,18.1048
1311257487582,18.1136
1311257547582,18.0948
1311257607582,18.1957
1311257667582,18.1410
1311257727582,18.1146
1311257787582,18.0839
1311257847582,18.1186
1311257907582,18.1120
1311257967582,18.1628
1311258027582,18.1262
1311258087582,18.0874
1311258147582,18.1217
1311258207582,18.1530
1311258267582,18.1151
1311258327582,18.1005
1311258387582,18.1507
1311258447582,18.1098
1311258507582,18.1313
1311258567582,18.1547
1311258627582,18.1335
1311258687582,18.1652
1311258747582,18.1401
1311258807582,18.0936
1311258867582,18.0739
1311258927582,18.1416
1311258987582,18.1046
1311259047582,18.0921
1311259107582,18.1046
1311259167582,18.1010
1311259227582,18.1062
1311259287582,18.0927
1311259347582,18.1598
1311259407582,18.1415
1311259467582,18.1653
1311259527582,18.1411
1311259587582,18.1125
1311259647582,18.1071
1311259707582,18.1264
1311259767582,18.1309
1311259827582,18.1768
1311259887582,18.1372
1311259947582,18.1594
1311260007582,18.1112
1311260067582,18.1620
1311260127582,18.0897
1311260187582,18.1183
1311260247582,18.0907
1311260307582,18.1212
1311260367582,18.1130
1311260427592,18.1391
1311260487592,18.0949
1311260547592,18.1683
1311260607592,18.2109
1311260667592,18.1853
1311260727592,18.1447
1311260787592,18.1859
1311260847592,18.1269
1311260907592,18.1175
1311260967592,18.1126
1311261027592,18.0640
1311261087592,18.1384
1311261147592,18.0816
1311261207592,18.1221
1311261267592,18.0458
1311261327592,18.0519
1311261387592,18.0533
1311261447592,18.0835
1311261507592,18.0321
1311261567592,18.0913
1311261627592,17.9838
1311261687592,18.0682
1311261747592,18.0119
1311261807592,18.0522
1311261867592,18.0408
1311261927592,18.0717
1311261987592,18.0309
1311262047592,18.0633
1311262107592,18.0720
1311262167592,18.0613
1311262227592,18.0721
1311262287592,18.0356
1311262347592,18.0862
1311262407592,18.0289
1311262467592,18.0808
1311262527592,18.0509
1311262587592,18.0675
1311262647592,18.0283
1311262707592,18.0213
1311262767592,18.0512
1311262827592,18.0292
1311262887592,18.0619
1311262947592,18.0216
1311263007592,17.9957
1311263067592,18.0458
1311263127592,18.1181
1311263187592,18.0632
1311263247592,18.0577
1311263307592,18.1064
1311263367592,18.1170
1311263427592,18.1644
1311263487592,18.1287
1311263547592,18.1296
1311263607592,18.1035
1311263667592,18.1187
1311263727592,18.0832
1311263787592,18.0847
1311263847592,18.0602
1311263907592,18.0807
1311263967592,18.0918
1311264027602,18.0733
1311264087602,18.0810
1311264147602,18.0798
1311264207602,18.1033
1311264267602,18.0915
1311264327602,18.1130
1311264387602,18.0856
1311264447602,18.0926
1311264507602,18.1249
1311264567602,18.0695
1311264627602,18.0885
1311264687602,18.0930
1311264747602,18.0670
1311264807602,18.0667
1311264867602,18.1366
1311264927602,18.0899
1311264987602,18.0946
1311265047602,18.0564
1311265107602,18.0968
1311265167602,18.1474
1311265227602,18.0435
1311265287602,18.0630
1311265347602,18.0448
1311265407602,18.0378
1311265467602,18.0502
1311265527602,18.0362
1311265587602,18.0298
1311265647602,18.0546
1311265707602,18.0214
1311265767602,18.0593
1311265827602,18.0354
1311265887602,18.0632
1311265947602,18.0507
1311266007602,18.0459
1311266067602,18.0290
1311266127602,18.0219
1311266187602,18.0461
1311266247602,18.0671
1311266307602,18.0535
1311266367602,18.0416
1311266427602,18.0176
1311266487602,18.0399
1311266547602,18.0431
1311266607602,18.0253
1311266667602,18.0072
1311266727602,18.0665
1311266787602,18.0530
1311266847602,18.0743
1311266907602,18.0412
1311266967602,18.0462
1311267027602,18.0064
1311267087602,18.0590
1311267147602,18.0423
1311267207602,18.0514
1311267267602,18.0260
1311267327602,18.0559
1311267387602,18.0286
1311267447602,18.0116
1311267507602,18.0198
1311267567602,18.0531
1311267627612,17.9829
1311267687612,18.0351
1311267747612,17.9431
1311267807612,18.0477
1311267867612,18.0212
1311267927612,17.9673
1311267987612,18.0042
1311268047612,18.0423
1311268107612,18.0536
1311268167612,18.0605
1311268227612,18.0222
1311268287612,18.0800
1311268347612,18.0472
1311268407612,18.0321
1311268467612,17.9911
1311268527612,18.0384
1311268587612,18.0169
1311268647612,18.0191
1311268707612,18.0749
1311268767612,18.0031
1311268827612,18.0758
1311268887612,18.0550
1311268947612,18.0685
1311269007612,18.0719
1311269067612,18.0409
1311269127612,18.0320
1311269187612,18.0180
1311269247612,18.0585
1311269307612,18.0293
1311269367612,18.0390
1311269427612,18.0370
1311269487612,18.0741
1311269547612,18.0288
1311269607612,18.0681
1311269667612,18.0759
1311269727612,18.0536
1311269787612,18.0419
1311269847612,18.0591
1311269907612,18.0596
1311269967612,18.0107
1311270027612,18.0272
1311270087612,18.0024
1311270147612,18.0810
1311270207612,18.0696
1311270267612,18.0631
1311270327612,18.1386
1311270387612,18.0586
1311270447612,18.0923
1311270507612,18.1032
1311270567612,18.1681
1311270627612,18.1143
1311270687612,18.1050
1311270747612,18.1374
1311270807612,18.0773
1311270867612,18.1086
1311270927612,18.1001
1311270987612,18.0776
1311271047612,18.1017
1311271107612,18.0789
1311271167612,18.1155
1311271227622,18.0721
1311271287622,18.1705
1311271347622,18.0821
1311271407622,18.0970
1311271467622,18.0658
1311271527622,18.0582
1311271587622,18.0032
1311271647622,18.0613
1311271707622,18.0729
1311271767622,18.0255